Wind_Speed
11 10 5 4 3 6 2 3 2 3 4 6 5 7 5 2 20 25 31 35 35 34 33 34 37 36 38 36 36 37 40 37 34 34 35 36 35 35 33 30 28 26 26 27
6 6 7 6 8 2 5 3 3 3 3 6 4 4 2 9 12 17 23 32 32 35 37 39 39 36 40 38 36 33 37 35 37 34 35 36 38 37 35 36 34 28 26 25
8 4 10 4 4 8 3 4 3 5 5 7 6 1 3 4 11 26 31 32 34 37 37 41 40 38 41 39 34 33 34 36 36 36 38 37 39 36 37 38 36 33 28 25
7 8 6 5 3 3 3 4 3 7 5 3 2 4 4 7 8 21 25 34 37 37 38 38 39 41 40 37 35 37 35 36 35 36 37 40 38 38 41 39 38 37 32 28
1 7 7 6 4 3 7 8 1 4 5 4 3 2 2 5 11 17 25 31 35 35 36 38 39 41 38 35 33 36 34 34 33 34 35 37 39 39 40 38 37 34 29 26
2 3 4 3 7 2 12 2 5 5 3 2 2 4 2 5 11 15 25 29 34 36 39 37 37 39 38 36 34 36 36 35 34 36 37 35 37 41 44 44 41 35 30 27
5 4 7 6 6 6 10 6 3 3 3 5 3 3 4 5 8 13 23 29 34 37 38 41 42 43 40 42 40 39 39 40 38 42 39 37 37 41 42 38 34 32 29 25
3 4 7 12 3 3 5 4 4 4 3 5 3 2 4 2 15 19 25 26 30 35 37 38 37 39 37 36 40 40 40 39 41 44 40 36 35 39 40 36 32 30 28 25
3 2 3 5 5 2 5 6 1 1 1 2 2 2 1 15 20 23 26 29 32 36 38 40 38 37 36 39 40 39 39 37 38 39 39 37 35 38 38 34 28 26 25 27
2 3 3 4 2 10 7 1 2 3 3 5 3 1 4 13 16 17 26 31 36 38 39 39 40 39 36 39 38 37 35 36 40 39 38 37 35 35 38 34 31 27 24 23
1 2 2 3 6 2 5 4 6 4 2 3 3 3 5 6 11 14 25 29 33 38 40 38 41 40 34 36 37 39 37 40 40 39 37 37 35 34 35 34 31 28 23 22
1 4 3 1 1 4 2 3 3 4 5 2 3 5 4 5 15 22 26 30 34 33 36 34 39 39 36 38 40 39 42 39 41 38 37 37 35 33 33 35 32 29 29 28
2 2 2 0 2 2 2 2 4 5 3 4 3 5 3 17 25 26 25 32 33 34 36 34 40 39 35 37 40 40 40 39 40 36 37 37 36 35 32 32 30 31 30 31
2 3 4 5 3 3 2 3 3 4 3 3 6 8 10 9 12 24 28 31 31 32 35 34 40 39 35 37 40 40 38 40 39 38 36 35 34 33 33 34 34 35 35 35
2 3 2 1 2 1 2 4 6 4 4 5 4 5 7 7 15 21 25 31 33 33 34 34 40 39 36 38 38 37 35 38 38 37 36 32 31 28 30 30 34 35 36 37
2 3 2 1 1 2 3 5 6 5 3 7 5 7 2 18 23 24 26 30 29 31 32 36 35 36 37 38 37 36 34 35 35 36 35 33 32 28 28 30 31 35 37 39
3 4 3 2 2 4 6 5 5 2 3 4 3 5 11 13 20 22 23 29 29 31 29 39 31 34 35 35 35 34 33 31 32 34 33 33 33 31 29 26 29 35 36 38
4 4 2 2 2 2 1 2 2 4 4 5 3 4 9 13 20 9 24 27 28 29 26 32 28 31 32 32 31 30 30 29 30 31 31 32 31 31 30 30 31 33 34 35
4 4 2 3 3 5 2 3 5 3 4 6 3 7 12 17 15 0 25 25 25 25 26 26 24 28 30 30 30 29 28 28 28 30 30 29 29 30 30 29 29 33 40 38
6 6 4 3 3 4 2 4 6 8 3 10 5 3 8 15 5 6 25 25 24 21 28 24 22 26 28 28 28 28 27 27 27 26 27 29 26 27 30 33 30 29 31 35
2 3 4 2 2 7 4 10 10 4 5 11 5 3 3 3 6 17 19 22 21 24 22 22 20 25 27 26 27 27 25 26 24 23 23 25 27 27 28 35 35 31 28 29
6 5 3 3 2 5 15 8 6 6 11 9 6 3 3 6 10 14 17 21 22 24 20 20 20 24 26 26 26 26 25 23 21 21 23 24 24 26 27 29 33 34 32 28
2 6 4 8 5 1 27 2 8 11 12 10 6 2 2 7 11 14 19 22 22 24 21 19 19 20 25 26 25 25 25 22 21 20 22 23 23 23 27 29 28 32 34 33
3 6 3 2 2 6 23 9 10 11 10 10 5 2 3 7 10 13 18 22 20 23 24 18 18 19 24 26 26 21 22 19 20 20 21 22 23 23 24 27 28 30 32 33
4 12 6 3 2 7 16 16 15 14 12 10 6 2 2 6 9 13 19 21 19 22 22 15 17 17 20 25 25 22 20 19 20 20 20 21 22 23 24 25 27 26 26 27
14 8 6 6 19 7 14 25 20 17 15 10 6 2 2 6 9 13 18 20 16 22 22 14 14 14 17 22 21 20 18 18 19 20 21 21 20 21 22 23 23 24 25 23
Wind_Direction
34 61 39 306 300 245 203 127 96 84 137 81 118 122 123 113 30 14 3 1 359 353 351 349 351 350 348 351 352 354 353 353 356 354 349 347 341 341 339 334 329 324 317 312
35 41 327 280 356 9 137 117 63 50 83 87 159 135 178 21 34 7 354 355 351 349 350 349 351 350 349 348 345 348 352 354 352 353 351 350 347 343 335 335 330 324 319 309
93 283 312 26 7 22 346 142 159 214 106 50 118 6 359 344 8 355 357 353 355 352 348 346 348 348 350 348 346 345 347 352 349 352 351 347 345 335 335 334 329 328 323 315
78 342 7 8 52 40 315 101 285 177 142 193 203 280 357 345 334 347 344 353 352 347 347 347 348 348 348 348 347 349 347 352 352 357 353 350 340 332 338 336 333 326 324 318
291 354 2 20 327 333 253 325 205 125 144 103 213 9 277 347 344 342 342 345 349 346 347 347 348 347 346 346 347 348 347 355 356 357 357 352 348 341 342 339 331 328 320 317
75 17 52 285 308 274 305 47 52 60 88 341 232 166 356 2 327 331 341 346 344 346 347 349 348 348 348 349 349 349 350 0 358 0 359 356 354 350 343 341 340 336 332 327
8 11 335 6 350 1 12 40 347 352 5 240 120 53 219 306 314 326 331 337 345 347 347 348 350 348 351 352 352 351 352 355 357 2 358 358 357 355 346 345 346 349 345 342
42 10 12 345 79 284 11 64 115 268 298 295 320 216 188 250 341 345 342 343 345 348 349 349 350 347 350 351 352 354 356 351 352 355 357 359 360 355 350 352 358 1 356 346
109 15 340 53 34 13 335 38 258 89 323 350 276 6 121 357 347 342 339 347 348 349 348 349 351 350 350 352 355 355 356 354 355 359 359 1 4 2 354 354 357 359 1 356
181 91 7 344 36 33 87 31 21 15 19 307 307 336 269 335 332 340 348 347 346 348 349 350 351 352 351 356 355 357 2 359 356 0 3 4 6 7 2 4 1 359 3 3
17 71 315 32 20 302 349 20 46 109 98 176 312 285 219 287 318 334 345 346 345 345 347 348 350 353 352 356 359 2 2 358 359 3 5 5 9 12 8 10 12 16 10 2
9 113 76 123 293 98 95 127 111 112 276 81 141 279 204 258 336 346 342 345 345 346 346 347 350 353 353 357 4 5 5 359 3 1 7 8 11 12 13 18 20 21 25 17
160 43 48 259 305 351 89 93 101 100 87 205 120 276 236 357 348 344 343 346 344 346 347 348 355 356 355 357 3 2 10 6 6 7 10 11 12 13 16 17 20 23 24 27
126 98 148 187 208 141 184 185 129 111 108 197 226 289 311 338 328 336 346 346 343 348 348 349 354 357 356 357 360 1 8 13 10 15 14 14 16 21 22 25 25 30 31 29
98 112 106 75 118 190 225 198 180 163 186 157 249 257 289 311 319 331 347 346 348 348 348 349 353 359 355 358 359 4 11 13 10 16 17 16 17 22 21 21 27 31 31 31
19 151 111 310 282 281 280 247 202 211 195 260 274 290 279 332 339 344 352 345 344 345 347 347 357 0 359 360 357 2 9 11 12 18 18 19 18 19 19 25 29 32 30 29
84 124 102 240 317 319 305 228 188 176 185 190 245 243 329 326 331 338 347 347 345 349 348 346 359 1 358 358 357 2 7 10 15 19 20 22 24 23 23 21 28 34 33 34
121 101 82 171 7 356 204 71 136 196 211 203 263 289 309 318 324 327 358 352 353 352 344 351 0 359 356 357 1 3 11 13 16 20 22 23 25 24 24 28 32 35 33 32
81 116 65 128 196 294 150 200 165 164 257 198 230 309 323 334 331 342 354 357 357 354 341 353 5 357 355 359 2 4 9 13 17 20 21 22 23 27 22 24 31 37 37 35
70 66 114 77 125 210 182 175 144 127 286 188 212 285 323 340 12 294 348 358 359 357 347 356 9 358 358 2 5 6 11 14 15 17 19 24 22 29 31 25 22 29 27 32
33 12 142 158 222 284 195 159 147 77 250 174 194 224 300 304 304 328 349 357 359 357 353 360 13 2 360 3 8 8 14 14 9 10 13 16 17 20 35 37 27 32 28 28
174 145 186 87 55 311 158 132 172 172 146 166 172 218 309 328 336 348 356 357 2 3 357 5 10 8 2 4 9 7 17 11 8 12 16 17 19 20 33 34 28 33 40 32
259 187 179 180 211 149 173 187 168 161 157 167 171 189 334 342 352 356 357 360 6 6 356 4 9 7 2 4 10 6 13 10 10 14 20 21 22 23 28 41 28 29 35 40
234 186 172 64 194 191 185 178 175 168 160 156 163 157 352 348 356 1 0 1 10 6 359 359 11 10 3 1 8 15 10 15 16 19 23 23 23 26 32 35 48 36 31 34
181 156 168 255 189 161 199 200 183 168 162 158 163 161 7 357 5 5 2 2 15 2 358 1 12 14 9 360 7 15 16 19 23 25 28 28 26 31 33 33 37 49 39 36
190 176 170 217 186 175 202 185 182 176 167 164 170 166 10 7 11 10 5 7 11 358 359 4 13 14 16 1 7 17 22 21 22 26 30 29 28 33 36 38 39 42 44 47
Height
1553 1562 1576 1574 1571 1568 1566 1567 1568 1572 1578 1583 1587 1592 1592 1592 1589 1587 1583 1579 1573 1568 1562 1557 1548 1541 1534 1526 1518 1510 1502 1495 1487 1479 1471 1463 1457 1451 1446 1442 1437 1433 1429 1426
1562 1575 1572 1570 1569 1565 1566 1570 1574 1578 1579 1582 1591 1592 1592 1591 1592 1590 1586 1580 1575 1568 1560 1552 1545 1539 1532 1523 1516 1508 1501 1493 1485 1478 1470 1463 1455 1448 1442 1436 1431 1427 1423 1419
1572 1578 1571 1569 1571 1570 1568 1570 1575 1576 1582 1585 1590 1594 1593 1593 1592 1589 1586 1582 1574 1567 1559 1550 1543 1537 1529 1521 1512 1505 1498 1490 1483 1476 1467 1459 1452 1445 1438 1432 1426 1421 1417 1413
1577 1576 1574 1572 1572 1574 1574 1568 1571 1573 1579 1586 1587 1592 1598 1597 1593 1588 1584 1577 1572 1566 1559 1552 1543 1535 1527 1520 1512 1504 1497 1489 1481 1473 1465 1458 1449 1441 1434 1427 1420 1414 1410 1406
1582 1579 1577 1577 1576 1575 1574 1569 1568 1571 1577 1584 1588 1595 1603 1599 1595 1589 1585 1579 1572 1567 1559 1550 1543 1536 1528 1520 1512 1503 1495 1488 1480 1473 1465 1456 1448 1440 1432 1424 1416 1410 1404 1400
1581 1580 1581 1581 1575 1574 1570 1568 1570 1576 1581 1584 1586 1591 1615 1605 1600 1592 1584 1580 1574 1565 1557 1550 1543 1535 1527 1519 1510 1501 1493 1485 1478 1470 1462 1454 1446 1436 1428 1419 1411 1403 1397 1393
1583 1585 1583 1582 1580 1574 1576 1577 1584 1574 1584 1581 1592 1595 1613 1603 1599 1594 1587 1579 1573 1566 1557 1547 1538 1530 1523 1514 1507 1498 1490 1482 1475 1467 1460 1452 1444 1435 1427 1417 1408 1399 1393 1388
1593 1587 1591 1589 1591 1591 1590 1593 1603 1584 1593 1596 1592 1595 1603 1601 1598 1593 1586 1580 1573 1565 1558 1550 1542 1534 1526 1517 1508 1500 1490 1482 1475 1467 1459 1451 1443 1434 1426 1417 1407 1399 1392 1387
1594 1596 1592 1592 1592 1591 1591 1605 1602 1605 1609 1615 1600 1602 1600 1597 1593 1591 1584 1579 1571 1564 1557 1549 1542 1534 1525 1517 1508 1500 1492 1484 1477 1468 1459 1450 1443 1434 1426 1416 1407 1400 1393 1387
1593 1597 1595 1593 1593 1594 1597 1603 1605 1616 1630 1609 1602 1605 1608 1601 1595 1589 1583 1576 1571 1564 1556 1549 1542 1534 1526 1518 1510 1502 1494 1485 1475 1468 1459 1450 1442 1434 1426 1416 1407 1399 1393 1387
1593 1595 1598 1597 1607 1608 1607 1609 1616 1621 1626 1641 1638 1606 1605 1605 1598 1591 1586 1580 1571 1564 1557 1550 1542 1535 1527 1520 1511 1503 1493 1484 1475 1467 1459 1451 1442 1434 1426 1417 1408 1400 1393 1387
1596 1603 1611 1609 1608 1607 1608 1612 1618 1633 1629 1642 1652 1621 1599 1600 1596 1591 1586 1582 1576 1567 1558 1551 1543 1535 1526 1519 1511 1502 1493 1485 1476 1468 1459 1452 1443 1436 1427 1419 1410 1402 1394 1388
1594 1603 1612 1605 1610 1607 1609 1611 1618 1625 1635 1645 1652 1614 1598 1596 1594 1591 1585 1579 1572 1566 1558 1551 1542 1534 1526 1519 1511 1503 1494 1486 1478 1469 1461 1453 1445 1437 1430 1422 1414 1406 1398 1390
1594 1603 1602 1610 1599 1607 1609 1610 1615 1620 1647 1646 1629 1611 1600 1601 1596 1590 1585 1580 1574 1566 1558 1551 1543 1536 1528 1521 1513 1504 1496 1487 1480 1471 1463 1456 1448 1441 1435 1427 1418 1410 1402 1394
1594 1600 1600 1603 1603 1603 1603 1605 1612 1628 1616 1631 1609 1611 1604 1600 1596 1591 1587 1580 1572 1565 1558 1551 1544 1537 1530 1522 1514 1507 1498 1489 1483 1474 1465 1458 1452 1446 1439 1431 1423 1414 1406 1398
1595 1604 1601 1603 1604 1604 1603 1602 1607 1610 1611 1615 1609 1606 1600 1598 1594 1589 1586 1579 1572 1565 1560 1553 1546 1539 1531 1524 1516 1509 1500 1493 1487 1478 1469 1462 1455 1449 1442 1435 1427 1420 1412 1403
1598 1604 1611 1602 1605 1604 1605 1599 1600 1602 1603 1604 1607 1602 1600 1597 1592 1589 1586 1581 1574 1567 1560 1554 1546 1540 1534 1526 1519 1512 1504 1497 1490 1482 1473 1466 1459 1453 1446 1439 1432 1424 1417 1410
1598 1606 1618 1623 1608 1606 1592 1596 1596 1598 1599 1600 1600 1600 1598 1596 1591 1588 1587 1581 1573 1567 1561 1554 1548 1542 1536 1528 1521 1514 1507 1500 1493 1485 1477 1470 1464 1457 1451 1444 1436 1429 1423 1417
1593 1604 1627 1619 1613 1595 1595 1596 1598 1596 1596 1596 1598 1597 1595 1592 1588 1586 1584 1579 1573 1568 1562 1555 1549 1545 1537 1529 1522 1516 1509 1503 1496 1489 1481 1475 1469 1462 1456 1449 1442 1436 1430 1423
1597 1600 1610 1634 1615 1594 1584 1591 1592 1593 1596 1593 1595 1596 1595 1591 1593 1587 1583 1578 1572 1567 1561 1555 1549 1546 1538 1531 1524 1518 1512 1505 1499 1493 1487 1481 1475 1468 1461 1454 1447 1441 1435 1430
1610 1617 1619 1622 1624 1594 1585 1587 1591 1595 1594 1590 1593 1593 1593 1592 1592 1588 1582 1576 1571 1567 1561 1556 1550 1546 1539 1532 1526 1520 1514 1508 1503 1497 1491 1485 1479 1473 1466 1459 1452 1444 1441 1436
1590 1607 1617 1626 1625 1582 1582 1588 1591 1585 1585 1587 1590 1590 1590 1589 1587 1584 1579 1573 1568 1563 1558 1555 1551 1547 1541 1534 1527 1522 1516 1511 1507 1500 1494 1488 1483 1477 1470 1462 1459 1451 1445 1441
1592 1581 1588 1587 1579 1575 1577 1578 1579 1580 1581 1585 1587 1588 1587 1587 1585 1582 1577 1573 1568 1564 1560 1556 1551 1548 1543 1536 1530 1524 1518 1514 1509 1503 1497 1492 1486 1480 1474 1466 1463 1458 1451 1446
1575 1574 1579 1578 1574 1573 1575 1577 1578 1579 1581 1583 1585 1586 1586 1585 1584 1581 1577 1571 1567 1564 1560 1556 1552 1548 1544 1538 1532 1527 1522 1517 1512 1506 1500 1495 1490 1484 1479 1474 1467 1463 1458 1453
1567 1570 1572 1573 1572 1573 1573 1574 1575 1578 1580 1582 1584 1585 1585 1583 1582 1579 1575 1570 1568 1564 1559 1556 1552 1549 1545 1540 1534 1529 1524 1520 1515 1510 1504 1499 1494 1489 1484 1479 1473 1469 1466 1462
1553 1554 1561 1556 1550 1556 1557 1567 1572 1575 1578 1580 1583 1584 1583 1582 1580 1579 1575 1571 1568 1563 1560 1556 1553 1550 1546 1542 1537 1532 1528 1523 1518 1514 1508 1503 1499 1494 1490 1485 1480 1476 1471 1467